QPF
0.00 0.00 0.00 0.00 0.00 0.00 0.00 0.00 0.01 0.00 0.00 0.00 0.01 0.00 0.00 0.01 0.01 0.01 0.01 0.01 0.01 0.01 0.01 0.02 0.03 0.03 0.02 0.02 0.01 0.02 0.02 0.03 0.03 0.04 0.04 0.03 0.03 0.03 0.02 0.02 0.03 0.03 0.05 0.04 0.03 0.03 0.02 0.03 0.03
0.00 0.00 0.00 0.01 0.01 0.00 0.00 0.01 0.02 0.01 0.01 0.01 0.01 0.01 0.01 0.01 0.01 0.00 0.01 0.01 0.01 0.01 0.01 0.03 0.04 0.04 0.03 0.02 0.02 0.02 0.02 0.02 0.03 0.03 0.04 0.03 0.03 0.03 0.03 0.03 0.03 0.02 0.04 0.04 0.03 0.03 0.03 0.03 0.04
0.00 0.00 0.00 0.00 0.00 0.00 0.01 0.01 0.01 0.01 0.02 0.01 0.01 0.01 0.01 0.01 0.00 0.00 0.01 0.01 0.02 0.02 0.02 0.02 0.03 0.04 0.04 0.03 0.02 0.02 0.02 0.03 0.04 0.04 0.04 0.04 0.03 0.02 0.02 0.02 0.02 0.02 0.03 0.03 0.03 0.03 0.03 0.03 0.02
0.00 0.00 0.00 0.00 0.00 0.00 0.00 0.00 0.00 0.01 0.01 0.01 0.01 0.01 0.01 0.00 0.00 0.00 0.01 0.01 0.02 0.03 0.04 0.04 0.04 0.04 0.04 0.03 0.02 0.02 0.02 0.03 0.04 0.04 0.04 0.04 0.03 0.02 0.01 0.01 0.02 0.02 0.02 0.02 0.03 0.03 0.02 0.02 0.02
0.01 0.01 0.00 0.00 0.00 0.00 0.01 0.00 0.00 0.01 0.01 0.01 0.01 0.01 0.01 0.00 0.00 0.01 0.01 0.01 0.02 0.04 0.05 0.05 0.05 0.05 0.04 0.04 0.03 0.03 0.03 0.03 0.04 0.04 0.04 0.04 0.04 0.03 0.01 0.01 0.01 0.01 0.01 0.02 0.03 0.03 0.03 0.02 0.02
0.01 0.01 0.00 0.00 0.00 0.01 0.01 0.00 0.01 0.01 0.01 0.01 0.01 0.01 0.01 0.01 0.00 0.01 0.01 0.02 0.02 0.04 0.06 0.07 0.07 0.07 0.06 0.05 0.04 0.04 0.05 0.05 0.05 0.05 0.05 0.05 0.05 0.03 0.02 0.01 0.01 0.01 0.01 0.01 0.02 0.03 0.03 0.02 0.03
0.01 0.01 0.00 0.00 0.00 0.00 0.00 0.00 0.01 0.01 0.01 0.01 0.01 0.01 0.01 0.01 0.01 0.01 0.01 0.02 0.02 0.03 0.05 0.07 0.10 0.09 0.10 0.11 0.13 0.12 0.10 0.07 0.07 0.07 0.06 0.05 0.04 0.04 0.02 0.01 0.01 0.01 0.01 0.02 0.02 0.02 0.02 0.02 0.03
0.01 0.01 0.00 0.00 0.00 0.00 0.00 0.00 0.00 0.01 0.01 0.02 0.01 0.01 0.01 0.01 0.01 0.02 0.02 0.02 0.02 0.03 0.05 0.07 0.09 0.10 0.12 0.14 0.19 0.19 0.12 0.08 0.08 0.08 0.06 0.08 0.06 0.04 0.02 0.02 0.01 0.01 0.01 0.02 0.02 0.02 0.02 0.02 0.03
0.01 0.01 0.00 0.00 0.00 0.00 0.00 0.00 0.00 0.01 0.01 0.01 0.02 0.01 0.01 0.01 0.02 0.04 0.04 0.04 0.03 0.04 0.05 0.07 0.08 0.09 0.11 0.13 0.13 0.13 0.11 0.09 0.10 0.08 0.06 0.07 0.08 0.05 0.03 0.02 0.01 0.01 0.01 0.01 0.02 0.02 0.02 0.02 0.02
0.01 0.01 0.00 0.00 0.00 0.00 0.00 0.00 0.01 0.01 0.01 0.01 0.01 0.01 0.01 0.01 0.03 0.03 0.04 0.04 0.04 0.05 0.05 0.06 0.07 0.09 0.09 0.08 0.08 0.08 0.08 0.07 0.07 0.06 0.06 0.06 0.09 0.07 0.05 0.03 0.01 0.01 0.01 0.01 0.01 0.02 0.02 0.02 0.02
0.01 0.01 0.00 0.00 0.00 0.00 0.00 0.00 0.01 0.01 0.01 0.01 0.00 0.01 0.01 0.02 0.02 0.03 0.03 0.04 0.04 0.05 0.06 0.05 0.07 0.08 0.08 0.06 0.05 0.06 0.06 0.06 0.05 0.04 0.06 0.06 0.09 0.10 0.07 0.05 0.03 0.02 0.01 0.01 0.02 0.02 0.02 0.02 0.02
0.01 0.00 0.00 0.00 0.00 0.00 0.01 0.00 0.01 0.01 0.01 0.01 0.01 0.01 0.01 0.01 0.02 0.02 0.03 0.05 0.06 0.05 0.06 0.07 0.08 0.07 0.06 0.04 0.04 0.05 0.06 0.06 0.06 0.05 0.07 0.08 0.09 0.12 0.10 0.07 0.05 0.03 0.02 0.02 0.02 0.02 0.02 0.03 0.02
0.01 0.00 0.00 0.00 0.00 0.00 0.01 0.01 0.00 0.01 0.01 0.01 0.00 0.01 0.01 0.01 0.01 0.01 0.02 0.05 0.07 0.05 0.07 0.09 0.08 0.07 0.06 0.05 0.03 0.03 0.04 0.05 0.04 0.05 0.07 0.07 0.08 0.11 0.12 0.09 0.06 0.04 0.03 0.03 0.02 0.02 0.03 0.03 0.02
0.01 0.01 0.00 0.00 0.00 0.00 0.00 0.01 0.00 0.00 0.01 0.01 0.01 0.00 0.00 0.01 0.01 0.01 0.02 0.04 0.06 0.05 0.05 0.07 0.07 0.07 0.07 0.05 0.04 0.03 0.03 0.04 0.05 0.05 0.07 0.07 0.08 0.08 0.10 0.10 0.07 0.07 0.06 0.05 0.04 0.02 0.02 0.03 0.03
0.01 0.01 0.01 0.00 0.00 0.00 0.00 0.00 0.00 0.00 0.00 0.01 0.01 0.01 0.00 0.01 0.01 0.01 0.02 0.03 0.06 0.04 0.04 0.06 0.07 0.07 0.06 0.05 0.04 0.04 0.04 0.04 0.04 0.05 0.06 0.07 0.08 0.08 0.08 0.08 0.07 0.06 0.06 0.05 0.04 0.02 0.03 0.03 0.04
0.01 0.02 0.01 0.01 0.01 0.01 0.01 0.01 0.00 0.00 0.00 0.00 0.00 0.00 0.00 0.00 0.01 0.01 0.01 0.03 0.05 0.05 0.04 0.05 0.06 0.07 0.05 0.04 0.03 0.04 0.04 0.04 0.05 0.06 0.07 0.07 0.08 0.08 0.07 0.06 0.05 0.04 0.05 0.04 0.04 0.03 0.03 0.03 0.03
0.02 0.02 0.02 0.01 0.01 0.01 0.01 0.01 0.00 0.00 0.00 0.00 0.00 0.00 0.00 0.00 0.00 0.00 0.01 0.01 0.05 0.07 0.03 0.05 0.06 0.06 0.05 0.04 0.03 0.02 0.03 0.04 0.04 0.05 0.08 0.08 0.09 0.08 0.06 0.05 0.04 0.03 0.02 0.02 0.02 0.03 0.03 0.02 0.02
0.02 0.02 0.02 0.02 0.01 0.01 0.01 0.01 0.00 0.00 0.00 0.00 0.01 0.01 0.01 0.00 0.00 0.00 0.01 0.01 0.04 0.08 0.04 0.04 0.06 0.05 0.04 0.04 0.03 0.03 0.03 0.03 0.04 0.05 0.06 0.07 0.10 0.09 0.07 0.06 0.04 0.03 0.02 0.01 0.01 0.01 0.01 0.01 0.01
0.02 0.03 0.02 0.02 0.01 0.02 0.01 0.01 0.01 0.01 0.01 0.01 0.02 0.02 0.01 0.00 0.00 0.00 0.01 0.02 0.05 0.08 0.06 0.04 0.05 0.05 0.05 0.04 0.03 0.03 0.05 0.06 0.06 0.05 0.06 0.07 0.09 0.09 0.07 0.05 0.05 0.04 0.03 0.02 0.01 0.01 0.01 0.01 0.01
0.02 0.03 0.02 0.02 0.01 0.02 0.02 0.03 0.03 0.03 0.04 0.04 0.04 0.03 0.01 0.01 0.00 0.00 0.01 0.02 0.06 0.10 0.07 0.05 0.04 0.05 0.05 0.04 0.04 0.03 0.02 0.03 0.06 0.07 0.08 0.09 0.11 0.11 0.08 0.05 0.05 0.05 0.04 0.03 0.02 0.01 0.01 0.01 0.01
0.01 0.03 0.02 0.01 0.01 0.02 0.04 0.07 0.06 0.04 0.03 0.04 0.03 0.03 0.02 0.01 0.01 0.01 0.01 0.03 0.05 0.10 0.09 0.06 0.04 0.04 0.06 0.06 0.05 0.04 0.03 0.02 0.02 0.04 0.06 0.10 0.13 0.15 0.12 0.07 0.06 0.05 0.04 0.02 0.02 0.01 0.01 0.01 0.01
0.00 0.01 0.02 0.02 0.03 0.04 0.05 0.09 0.09 0.05 0.04 0.03 0.03 0.02 0.03 0.03 0.01 0.01 0.03 0.04 0.06 0.08 0.09 0.07 0.05 0.04 0.06 0.08 0.06 0.06 0.05 0.03 0.02 0.02 0.03 0.06 0.09 0.13 0.13 0.10 0.08 0.05 0.03 0.03 0.02 0.02 0.02 0.02 0.02
0.00 0.00 0.01 0.02 0.02 0.03 0.03 0.05 0.04 0.03 0.04 0.04 0.04 0.03 0.03 0.03 0.02 0.02 0.03 0.05 0.07 0.08 0.09 0.08 0.07 0.05 0.05 0.07 0.07 0.06 0.05 0.04 0.03 0.03 0.03 0.05 0.07 0.09 0.10 0.08 0.07 0.05 0.05 0.04 0.03 0.02 0.02 0.02 0.02
0.00 0.00 0.01 0.02 0.05 0.05 0.02 0.02 0.02 0.02 0.03 0.03 0.03 0.04 0.03 0.03 0.02 0.02 0.04 0.05 0.07 0.08 0.08 0.08 0.08 0.06 0.04 0.04 0.05 0.05 0.05 0.05 0.04 0.04 0.04 0.05 0.06 0.08 0.08 0.06 0.04 0.03 0.03 0.03 0.03 0.02 0.02 0.02 0.02
0.00 0.01 0.02 0.03 0.05 0.05 0.01 0.01 0.02 0.03 0.03 0.03 0.03 0.04 0.03 0.03 0.02 0.03 0.04 0.05 0.06 0.07 0.08 0.08 0.07 0.05 0.04 0.03 0.03 0.03 0.03 0.05 0.05 0.05 0.05 0.05 0.06 0.07 0.07 0.06 0.04 0.02 0.01 0.01 0.02 0.02 0.01 0.01 0.01
0.00 0.01 0.01 0.02 0.02 0.02 0.01 0.01 0.01 0.01 0.02 0.02 0.02 0.03 0.03 0.03 0.02 0.02 0.03 0.05 0.07 0.07 0.08 0.08 0.06 0.05 0.04 0.03 0.02 0.02 0.02 0.03 0.05 0.06 0.06 0.05 0.06 0.06 0.06 0.05 0.04 0.02 0.01 0.01 0.01 0.02 0.02 0.02 0.02
0.00 0.01 0.01 0.02 0.01 0.01 0.01 0.00 0.00 0.00 0.00 0.01 0.01 0.02 0.02 0.02 0.02 0.02 0.03 0.04 0.05 0.06 0.07 0.08 0.06 0.05 0.05 0.04 0.03 0.02 0.02 0.02 0.03 0.04 0.06 0.05 0.05 0.05 0.06 0.06 0.05 0.03 0.02 0.01 0.02 0.02 0.02 0.02 0.02
0.00 0.01 0.01 0.02 0.02 0.01 0.01 0.00 0.00 0.00 0.00 0.00 0.00 0.01 0.01 0.01 0.01 0.01 0.02 0.03 0.04 0.06 0.07 0.07 0.06 0.05 0.04 0.04 0.03 0.02 0.02 0.02 0.02 0.03 0.04 0.03 0.03 0.04 0.04 0.05 0.05 0.04 0.03 0.02 0.02 0.02 0.02 0.03 0.02
0.00 0.01 0.01 0.01 0.01 0.01 0.01 0.01 0.01 0.01 0.01 0.01 0.01 0.01 0.01 0.01 0.01 0.00 0.01 0.02 0.03 0.05 0.06 0.07 0.07 0.07 0.06 0.05 0.04 0.03 0.03 0.03 0.03 0.03 0.03 0.02 0.02 0.02 0.03 0.04 0.04 0.04 0.03 0.02 0.01 0.01 0.02 0.02 0.02
0.00 0.00 0.01 0.02 0.01 0.01 0.01 0.01 0.00 0.00 0.01 0.01 0.01 0.01 0.01 0.00 0.00 0.00 0.01 0.01 0.02 0.03 0.04 0.05 0.06 0.07 0.08 0.07 0.06 0.05 0.04 0.05 0.04 0.04 0.04 0.02 0.02 0.01 0.03 0.04 0.04 0.03 0.03 0.02 0.01 0.01 0.02 0.02 0.02
MSLP
1008.97 1009.36 1009.75 1010.05 1010.16 1010.03 1009.65 1009.05 1008.31 1007.53 1006.82 1006.28 1005.97 1005.90 1006.06 1006.40 1006.84 1007.31 1007.75 1008.13 1008.45 1008.71 1008.97 1009.24 1009.55 1009.90 1010.28 1010.66 1011.02 1011.31 1011.54 1011.70 1011.79 1011.85 1011.89 1011.93 1011.97 1012.01 1012.04 1012.05 1012.02 1011.97 1011.91 1011.84 1011.79 1011.78 1011.83 1011.94 1012.11
1009.15 1009.55 1009.88 1010.03 1009.95 1009.61 1009.03 1008.28 1007.45 1006.67 1006.03 1005.62 1005.47 1005.57 1005.88 1006.32 1006.81 1007.29 1007.70 1008.04 1008.31 1008.56 1008.81 1009.11 1009.46 1009.88 1010.32 1010.76 1011.17 1011.51 1011.78 1011.96 1012.08 1012.16 1012.22 1012.27 1012.32 1012.36 1012.39 1012.38 1012.35 1012.28 1012.19 1012.09 1012.01 1011.96 1011.96 1012.01 1012.12
1009.38 1009.75 1009.98 1009.97 1009.70 1009.15 1008.39 1007.52 1006.65 1005.90 1005.36 1005.10 1005.12 1005.37 1005.80 1006.32 1006.84 1007.30 1007.67 1007.96 1008.20 1008.43 1008.69 1009.02 1009.42 1009.89 1010.39 1010.88 1011.33 1011.71 1012.00 1012.21 1012.35 1012.45 1012.52 1012.59 1012.64 1012.68 1012.70 1012.69 1012.65 1012.57 1012.47 1012.37 1012.27 1012.19 1012.16 1012.16 1012.20
1009.60 1009.92 1010.03 1009.86 1009.40 1008.69 1007.80 1006.85 1005.98 1005.31 1004.90 1004.79 1004.96 1005.35 1005.87 1006.43 1006.95 1007.37 1007.70 1007.95 1008.16 1008.38 1008.66 1009.02 1009.47 1009.98 1010.51 1011.03 1011.49 1011.88 1012.18 1012.40 1012.56 1012.68 1012.78 1012.85 1012.92 1012.96 1012.98 1012.97 1012.92 1012.85 1012.76 1012.66 1012.57 1012.48 1012.42 1012.39 1012.38
1009.77 1010.01 1010.00 1009.68 1009.08 1008.24 1007.29 1006.34 1005.52 1004.95 1004.69 1004.73 1005.03 1005.52 1006.09 1006.66 1007.15 1007.53 1007.81 1008.02 1008.21 1008.44 1008.75 1009.14 1009.61 1010.14 1010.68 1011.20 1011.65 1012.02 1012.32 1012.55 1012.72 1012.86 1012.97 1013.07 1013.14 1013.19 1013.21 1013.20 1013.15 1013.09 1013.02 1012.95 1012.88 1012.81 1012.74 1012.68 1012.63
1009.84 1009.99 1009.87 1009.44 1008.74 1007.86 1006.90 1006.00 1005.29 1004.86 1004.75 1004.92 1005.32 1005.86 1006.44 1006.98 1007.42 1007.75 1007.98 1008.17 1008.36 1008.61 1008.94 1009.36 1009.85 1010.38 1010.90 1011.38 1011.79 1012.13 1012.41 1012.63 1012.81 1012.97 1013.11 1013.23 1013.32 1013.37 1013.39 1013.38 1013.34 1013.30 1013.25 1013.21 1013.17 1013.13 1013.07 1013.00 1012.91
1009.80 1009.86 1009.64 1009.14 1008.40 1007.53 1006.64 1005.86 1005.29 1005.01 1005.03 1005.31 1005.77 1006.32 1006.87 1007.34 1007.71 1007.98 1008.17 1008.35 1008.56 1008.83 1009.20 1009.64 1010.14 1010.64 1011.12 1011.54 1011.90 1012.20 1012.45 1012.66 1012.86 1013.04 1013.21 1013.35 1013.46 1013.51 1013.53 1013.51 1013.47 1013.43 1013.41 1013.40 1013.40 1013.39 1013.35 1013.28 1013.17
1009.64 1009.61 1009.32 1008.79 1008.08 1007.28 1006.51 1005.88 1005.47 1005.34 1005.47 1005.81 1006.28 1006.79 1007.27 1007.66 1007.95 1008.15 1008.31 1008.49 1008.72 1009.04 1009.44 1009.91 1010.40 1010.88 1011.31 1011.68 1011.98 1012.23 1012.45 1012.66 1012.87 1013.09 1013.28 1013.45 1013.57 1013.63 1013.63 1013.60 1013.55 1013.51 1013.50 1013.51 1013.54 1013.56 1013.55 1013.48 1013.36
1009.40 1009.29 1008.96 1008.44 1007.79 1007.11 1006.49 1006.02 1005.77 1005.76 1005.96 1006.32 1006.76 1007.19 1007.56 1007.85 1008.04 1008.19 1008.32 1008.51 1008.78 1009.15 1009.59 1010.09 1010.59 1011.04 1011.43 1011.75 1012.01 1012.23 1012.43 1012.65 1012.88 1013.12 1013.35 1013.53 1013.66 1013.72 1013.71 1013.66 1013.59 1013.54 1013.53 1013.55 1013.60 1013.64 1013.64 1013.59 1013.46
1009.11 1008.94 1008.59 1008.11 1007.56 1007.01 1006.54 1006.23 1006.11 1006.18 1006.42 1006.75 1007.11 1007.44 1007.68 1007.85 1007.95 1008.03 1008.16 1008.36 1008.67 1009.09 1009.59 1010.12 1010.63 1011.09 1011.46 1011.76 1011.99 1012.19 1012.40 1012.63 1012.88 1013.15 1013.40 1013.61 1013.74 1013.79 1013.77 1013.70 1013.61 1013.55 1013.52 1013.54 1013.59 1013.64 1013.66 1013.60 1013.47
1008.83 1008.61 1008.27 1007.85 1007.39 1006.97 1006.64 1006.45 1006.43 1006.55 1006.77 1007.04 1007.30 1007.49 1007.61 1007.65 1007.66 1007.70 1007.80 1008.02 1008.37 1008.84 1009.39 1009.96 1010.51 1010.99 1011.37 1011.68 1011.92 1012.14 1012.36 1012.61 1012.89 1013.18 1013.45 1013.67 1013.80 1013.85 1013.82 1013.73 1013.63 1013.55 1013.51 1013.53 1013.57 1013.62 1013.63 1013.58 1013.44
1008.59 1008.35 1008.03 1007.67 1007.30 1006.99 1006.77 1006.66 1006.68 1006.80 1006.98 1007.16 1007.30 1007.37 1007.36 1007.30 1007.23 1007.21 1007.30 1007.53 1007.90 1008.41 1009.00 1009.62 1010.21 1010.73 1011.17 1011.51 1011.80 1012.05 1012.31 1012.59 1012.89 1013.20 1013.48 1013.71 1013.84 1013.89 1013.86 1013.77 1013.67 1013.59 1013.54 1013.55 1013.58 1013.62 1013.62 1013.56 1013.41
1008.44 1008.19 1007.90 1007.59 1007.30 1007.06 1006.90 1006.83 1006.86 1006.94 1007.05 1007.13 1007.16 1007.12 1007.01 1006.86 1006.73 1006.67 1006.73 1006.95 1007.33 1007.85 1008.46 1009.12 1009.76 1010.35 1010.85 1011.27 1011.63 1011.94 1012.25 1012.57 1012.89 1013.20 1013.49 1013.71 1013.85 1013.91 1013.89 1013.83 1013.74 1013.67 1013.63 1013.63 1013.66 1013.68 1013.66 1013.57 1013.41
1008.41 1008.17 1007.91 1007.64 1007.39 1007.19 1007.05 1006.97 1006.96 1006.99 1007.01 1007.01 1006.96 1006.84 1006.66 1006.47 1006.29 1006.19 1006.22 1006.40 1006.75 1007.25 1007.86 1008.53 1009.21 1009.87 1010.45 1010.97 1011.42 1011.82 1012.19 1012.54 1012.87 1013.19 1013.46 1013.68 1013.82 1013.90 1013.92 1013.89 1013.85 1013.81 1013.79 1013.80 1013.81 1013.81 1013.76 1013.65 1013.46
1008.49 1008.27 1008.04 1007.80 1007.58 1007.38 1007.22 1007.10 1007.03 1006.98 1006.94 1006.87 1006.77 1006.62 1006.43 1006.21 1006.02 1005.89 1005.87 1005.99 1006.27 1006.71 1007.27 1007.93 1008.64 1009.35 1010.03 1010.65 1011.20 1011.70 1012.13 1012.51 1012.86 1013.15 1013.41 1013.61 1013.76 1013.87 1013.92 1013.95 1013.97 1013.98 1014.00 1014.01 1014.02 1013.99 1013.91 1013.76 1013.55
1008.70 1008.52 1008.32 1008.10 1007.87 1007.65 1007.44 1007.26 1007.10 1006.98 1006.88 1006.79 1006.67 1006.54 1006.37 1006.19 1006.00 1005.85 1005.77 1005.81 1005.99 1006.32 1006.80 1007.41 1008.11 1008.87 1009.62 1010.35 1011.01 1011.59 1012.09 1012.50 1012.84 1013.12 1013.35 1013.54 1013.69 1013.82 1013.92 1014.01 1014.10 1014.16 1014.22 1014.25 1014.24 1014.19 1014.07 1013.88 1013.64
1009.04 1008.90 1008.73 1008.53 1008.29 1008.02 1007.74 1007.47 1007.22 1007.03 1006.88 1006.78 1006.70 1006.62 1006.52 1006.39 1006.24 1006.08 1005.95 1005.89 1005.94 1006.14 1006.50 1007.03 1007.70 1008.47 1009.28 1010.10 1010.85 1011.52 1012.08 1012.52 1012.86 1013.11 1013.31 1013.47 1013.61 1013.76 1013.91 1014.06 1014.21 1014.33 1014.42 1014.46 1014.44 1014.36 1014.20 1013.98 1013.71
1009.52 1009.43 1009.30 1009.11 1008.84 1008.51 1008.14 1007.76 1007.42 1007.14 1006.95 1006.85 1006.82 1006.82 1006.83 1006.79 1006.70 1006.56 1006.38 1006.23 1006.15 1006.19 1006.42 1006.83 1007.44 1008.20 1009.05 1009.93 1010.77 1011.51 1012.12 1012.58 1012.91 1013.13 1013.29 1013.42 1013.56 1013.72 1013.90 1014.11 1014.30 1014.47 1014.59 1014.63 1014.59 1014.48 1014.29 1014.04 1013.74
1010.13 1010.11 1010.02 1009.84 1009.54 1009.14 1008.66 1008.16 1007.69 1007.32 1007.07 1006.97 1006.99 1007.09 1007.21 1007.29 1007.28 1007.17 1006.98 1006.75 1006.55 1006.46 1006.54 1006.83 1007.36 1008.08 1008.95 1009.86 1010.76 1011.55 1012.20 1012.68 1012.99 1013.19 1013.32 1013.42 1013.54 1013.70 1013.90 1014.14 1014.37 1014.57 1014.70 1014.75 1014.70 1014.55 1014.33 1014.06 1013.75
1010.87 1010.93 1010.89 1010.72 1010.39 1009.90 1009.30 1008.65 1008.04 1007.54 1007.21 1007.08 1007.14 1007.31 1007.55 1007.75 1007.85 1007.81 1007.63 1007.36 1007.08 1006.87 1006.82 1007.00 1007.44 1008.11 1008.95 1009.88 1010.81 1011.64 1012.31 1012.80 1013.11 1013.28 1013.37 1013.45 1013.55 1013.70 1013.92 1014.17 1014.43 1014.64 1014.78 1014.82 1014.76 1014.59 1014.35 1014.07 1013.76
1011.75 1011.88 1011.90 1011.74 1011.37 1010.79 1010.05 1009.24 1008.44 1007.79 1007.34 1007.14 1007.19 1007.42 1007.74 1008.06 1008.28 1008.33 1008.21 1007.95 1007.62 1007.34 1007.20 1007.28 1007.63 1008.24 1009.05 1009.97 1010.90 1011.74 1012.43 1012.92 1013.22 1013.38 1013.45 1013.50 1013.58 1013.73 1013.94 1014.20 1014.47 1014.70 1014.84 1014.88 1014.80 1014.63 1014.39 1014.10 1013.81
1012.72 1012.94 1013.02 1012.87 1012.46 1011.78 1010.89 1009.89 1008.90 1008.04 1007.43 1007.11 1007.10 1007.34 1007.73 1008.14 1008.48 1008.64 1008.61 1008.40 1008.09 1007.78 1007.59 1007.60 1007.88 1008.42 1009.18 1010.07 1010.98 1011.82 1012.50 1012.99 1013.29 1013.44 1013.50 1013.55 1013.62 1013.76 1013.98 1014.24 1014.51 1014.74 1014.89 1014.93 1014.86 1014.69 1014.46 1014.19 1013.92
1013.76 1014.06 1014.18 1014.04 1013.59 1012.83 1011.79 1010.60 1009.39 1008.31 1007.50 1007.03 1006.91 1007.11 1007.51 1008.00 1008.43 1008.71 1008.79 1008.67 1008.42 1008.13 1007.93 1007.91 1008.13 1008.61 1009.31 1010.15 1011.02 1011.84 1012.52 1013.01 1013.31 1013.46 1013.53 1013.57 1013.64 1013.79 1014.00 1014.27 1014.54 1014.78 1014.93 1014.98 1014.92 1014.77 1014.56 1014.32 1014.09
1014.81 1015.17 1015.33 1015.20 1014.72 1013.87 1012.70 1011.34 1009.92 1008.62 1007.60 1006.94 1006.68 1006.79 1007.17 1007.68 1008.19 1008.57 1008.76 1008.75 1008.58 1008.36 1008.18 1008.14 1008.33 1008.76 1009.40 1010.18 1011.01 1011.79 1012.45 1012.94 1013.25 1013.42 1013.50 1013.56 1013.65 1013.80 1014.02 1014.28 1014.56 1014.80 1014.96 1015.02 1014.98 1014.85 1014.67 1014.47 1014.27
1015.82 1016.20 1016.39 1016.27 1015.77 1014.86 1013.59 1012.08 1010.49 1009.00 1007.77 1006.93 1006.51 1006.50 1006.81 1007.30 1007.84 1008.30 1008.58 1008.67 1008.61 1008.45 1008.32 1008.29 1008.46 1008.85 1009.43 1010.16 1010.94 1011.69 1012.33 1012.82 1013.14 1013.34 1013.45 1013.53 1013.63 1013.79 1014.02 1014.28 1014.55 1014.79 1014.95 1015.02 1014.99 1014.89 1014.74 1014.58 1014.42
1016.71 1017.09 1017.29 1017.18 1016.66 1015.72 1014.40 1012.80 1011.09 1009.46 1008.08 1007.07 1006.50 1006.35 1006.56 1006.99 1007.52 1008.00 1008.35 1008.52 1008.54 1008.46 1008.37 1008.37 1008.53 1008.89 1009.43 1010.10 1010.84 1011.55 1012.18 1012.67 1013.02 1013.24 1013.39 1013.50 1013.62 1013.79 1014.01 1014.27 1014.52 1014.74 1014.89 1014.96 1014.95 1014.86 1014.73 1014.60 1014.47
1017.43 1017.79 1017.97 1017.84 1017.33 1016.39 1015.07 1013.46 1011.71 1010.01 1008.53 1007.41 1006.71 1006.43 1006.52 1006.87 1007.34 1007.80 1008.16 1008.37 1008.44 1008.42 1008.38 1008.41 1008.57 1008.91 1009.42 1010.05 1010.75 1011.44 1012.06 1012.56 1012.93 1013.19 1013.36 1013.50 1013.64 1013.81 1014.02 1014.25 1014.47 1014.66 1014.79 1014.84 1014.82 1014.73 1014.62 1014.50 1014.40
1017.96 1018.24 1018.37 1018.23 1017.72 1016.82 1015.54 1013.99 1012.28 1010.61 1009.11 1007.94 1007.16 1006.77 1006.75 1006.98 1007.35 1007.74 1008.07 1008.28 1008.37 1008.38 1008.37 1008.43 1008.61 1008.94 1009.43 1010.04 1010.72 1011.39 1012.01 1012.53 1012.92 1013.20 1013.41 1013.57 1013.71 1013.87 1014.05 1014.24 1014.42 1014.56 1014.65 1014.67 1014.62 1014.53 1014.41 1014.29 1014.20
1018.28 1018.44 1018.49 1018.30 1017.79 1016.94 1015.76 1014.32 1012.74 1011.17 1009.75 1008.60 1007.79 1007.34 1007.21 1007.32 1007.57 1007.86 1008.11 1008.27 1008.35 1008.37 1008.38 1008.46 1008.66 1009.01 1009.50 1010.10 1010.77 1011.44 1012.07 1012.59 1013.01 1013.32 1013.55 1013.71 1013.86 1014.00 1014.14 1014.28 1014.40 1014.48 1014.52 1014.49 1014.40 1014.28 1014.15 1014.03 1013.94
1018.41 1018.42 1018.33 1018.06 1017.55 1016.75 1015.69 1014.41 1013.01 1011.61 1010.34 1009.29 1008.51 1008.03 1007.82 1007.82 1007.94 1008.11 1008.25 1008.34 1008.37 1008.38 1008.41 1008.51 1008.74 1009.11 1009.61 1010.22 1010.90 1011.58 1012.21 1012.75 1013.19 1013.52 1013.76 1013.93 1014.06 1014.18 1014.28 1014.36 1014.43 1014.45 1014.43 1014.35 1014.22 1014.07 1013.91 1013.78 1013.68
Thickness
5701 5707 5710 5704 5690 5685 5692 5712 5724 5726 5729 5733 5736 5734 5727 5720 5717 5707 5717 5728 5730 5730 5728 5727 5727 5727 5727 5727 5727 5726 5726 5725 5724 5723 5723 5722 5722 5721 5721 5720 5719 5719 5718 5718 5717 5717 5716 5715 5714
5696 5702 5700 5691 5679 5676 5694 5712 5715 5717 5722 5727 5728 5726 5720 5716 5718 5714 5717 5722 5725 5725 5724 5722 5722 5723 5722 5722 5722 5721 5721 5720 5720 5719 5718 5718 5718 5717 5717 5716 5716 5715 5715 5714 5714 5713 5713 5712 5711
5691 5695 5686 5681 5679 5682 5694 5710 5710 5713 5719 5718 5714 5715 5711 5707 5711 5709 5712 5718 5720 5719 5718 5718 5717 5718 5717 5717 5717 5716 5716 5715 5715 5715 5714 5714 5713 5713 5713 5712 5712 5712 5711 5711 5710 5709 5709 5708 5707
5685 5681 5679 5673 5677 5691 5697 5702 5704 5703 5707 5709 5705 5699 5702 5702 5703 5703 5708 5712 5712 5713 5713 5712 5712 5712 5713 5712 5712 5711 5711 5711 5710 5710 5709 5709 5709 5709 5709 5708 5708 5708 5707 5707 5706 5705 5704 5704 5703
5677 5670 5663 5665 5675 5688 5696 5699 5699 5693 5694 5698 5695 5688 5686 5691 5696 5698 5701 5704 5705 5706 5706 5706 5706 5707 5707 5707 5707 5706 5706 5705 5705 5705 5705 5704 5704 5704 5703 5703 5703 5703 5703 5702 5702 5701 5700 5699 5698
5663 5663 5655 5658 5671 5682 5688 5692 5691 5686 5685 5688 5686 5680 5676 5682 5685 5688 5693 5696 5698 5698 5700 5699 5700 5701 5701 5701 5701 5701 5700 5700 5700 5700 5699 5699 5699 5699 5698 5698 5698 5698 5698 5698 5697 5696 5696 5695 5694
5652 5651 5651 5660 5662 5669 5677 5682 5678 5675 5673 5676 5679 5671 5669 5671 5675 5679 5683 5687 5690 5691 5692 5692 5693 5694 5695 5696 5696 5695 5695 5694 5694 5694 5694 5694 5694 5694 5694 5693 5693 5693 5693 5693 5692 5691 5690 5690 5689
5649 5646 5649 5654 5654 5658 5666 5669 5668 5665 5664 5671 5670 5662 5658 5662 5667 5671 5674 5676 5680 5683 5685 5685 5687 5689 5690 5690 5690 5689 5689 5689 5688 5688 5688 5688 5689 5688 5689 5688 5688 5688 5687 5687 5687 5686 5685 5684 5684
5643 5632 5636 5645 5646 5650 5655 5654 5656 5659 5657 5657 5657 5655 5654 5657 5659 5661 5663 5665 5671 5675 5677 5678 5680 5682 5683 5684 5683 5683 5683 5682 5682 5683 5683 5682 5682 5682 5682 5683 5682 5682 5682 5681 5681 5680 5679 5679 5678
5630 5623 5633 5641 5642 5641 5643 5642 5642 5643 5642 5642 5643 5645 5647 5648 5649 5650 5653 5656 5660 5664 5668 5671 5673 5675 5676 5677 5677 5677 5676 5676 5676 5676 5677 5677 5677 5677 5677 5676 5676 5676 5675 5675 5675 5674 5673 5673 5672
5626 5623 5630 5633 5635 5634 5632 5631 5633 5631 5630 5633 5632 5632 5636 5638 5639 5642 5645 5648 5651 5655 5658 5662 5665 5667 5669 5670 5670 5670 5670 5670 5670 5670 5670 5671 5671 5671 5671 5670 5669 5669 5669 5668 5668 5667 5667 5666 5666
5619 5622 5625 5624 5624 5623 5622 5622 5620 5621 5623 5629 5629 5628 5628 5629 5631 5633 5636 5640 5642 5646 5649 5653 5657 5659 5661 5662 5663 5662 5663 5663 5663 5664 5664 5664 5664 5664 5664 5663 5662 5662 5662 5661 5660 5660 5660 5660 5660
5611 5613 5616 5616 5616 5615 5614 5611 5610 5613 5618 5621 5621 5619 5619 5621 5623 5627 5630 5632 5634 5636 5641 5645 5648 5650 5652 5653 5654 5655 5655 5655 5656 5656 5656 5657 5657 5656 5656 5656 5655 5655 5655 5654 5653 5653 5653 5653 5654
5607 5606 5606 5607 5607 5607 5604 5604 5604 5609 5612 5611 5611 5610 5612 5613 5615 5618 5621 5622 5625 5628 5631 5635 5639 5640 5642 5644 5645 5646 5647 5647 5648 5648 5648 5649 5649 5648 5648 5648 5648 5648 5648 5647 5646 5646 5646 5646 5646
5600 5595 5598 5602 5603 5602 5597 5595 5599 5604 5605 5603 5603 5604 5604 5606 5608 5610 5612 5614 5616 5619 5622 5626 5629 5631 5633 5634 5636 5637 5638 5639 5640 5640 5641 5640 5640 5640 5640 5640 5640 5639 5639 5639 5638 5638 5637 5637 5638
5591 5587 5586 5597 5599 5596 5587 5585 5596 5598 5597 5595 5595 5596 5596 5597 5600 5602 5604 5606 5608 5610 5613 5617 5620 5622 5623 5624 5626 5627 5629 5630 5631 5632 5632 5632 5631 5632 5631 5630 5631 5630 5630 5630 5629 5629 5627 5627 5628
5582 5579 5584 5587 5593 5590 5583 5581 5588 5591 5590 5587 5588 5588 5588 5590 5592 5594 5595 5597 5599 5601 5604 5606 5609 5611 5612 5614 5616 5617 5619 5620 5621 5622 5623 5623 5622 5623 5622 5621 5621 5621 5621 5620 5620 5619 5618 5617 5617
5573 5577 5582 5581 5584 5582 5577 5577 5581 5583 5582 5580 5580 5580 5581 5582 5583 5586 5587 5588 5590 5591 5593 5596 5598 5600 5602 5604 5606 5607 5608 5609 5610 5611 5613 5613 5613 5614 5613 5612 5612 5612 5611 5610 5610 5609 5608 5608 5608
5573 5571 5573 5576 5579 5573 5571 5572 5575 5576 5574 5572 5572 5571 5572 5573 5576 5578 5579 5579 5580 5581 5583 5586 5588 5589 5591 5593 5594 5595 5595 5597 5599 5601 5602 5602 5603 5603 5604 5602 5602 5602 5601 5601 5600 5599 5598 5597 5598
5566 5563 5565 5567 5571 5566 5566 5567 5571 5572 5569 5567 5565 5564 5564 5565 5568 5570 5570 5570 5569 5570 5572 5575 5578 5579 5580 5581 5583 5584 5585 5586 5588 5590 5591 5592 5592 5593 5594 5592 5592 5592 5591 5591 5590 5589 5587 5587 5587
5561 5558 5556 5554 5557 5563 5560 5561 5566 5568 5566 5564 5562 5559 5557 5558 5558 5558 5559 5559 5559 5560 5562 5566 5567 5569 5570 5570 5572 5573 5574 5575 5576 5578 5579 5581 5581 5582 5583 5582 5582 5581 5581 5580 5580 5580 5578 5577 5577
5550 5558 5554 5549 5542 5544 5554 5543 5559 5560 5558 5558 5554 5552 5550 5550 5550 5548 5548 5548 5549 5550 5552 5554 5557 5558 5560 5560 5562 5562 5563 5564 5566 5568 5569 5570 5571 5572 5573 5572 5570 5571 5571 5571 5570 5570 5569 5568 5566
5546 5551 5549 5545 5540 5537 5546 5538 5549 5556 5551 5549 5547 5545 5543 5541 5540 5539 5538 5538 5538 5539 5541 5543 5546 5549 5550 5550 5551 5552 5552 5554 5556 5557 5558 5559 5560 5561 5562 5562 5561 5560 5561 5560 5559 5559 5558 5558 5557
5543 5543 5542 5539 5532 5524 5541 5536 5541 5548 5547 5544 5541 5538 5535 5533 5532 5531 5530 5530 5530 5530 5531 5533 5536 5539 5540 5540 5540 5541 5542 5543 5545 5547 5547 5548 5550 5550 5552 5552 5551 5551 5550 5550 5550 5549 5548 5548 5547
5532 5523 5516 5517 5517 5525 5547 5537 5533 5539 5541 5539 5534 5529 5527 5526 5523 5522 5521 5520 5520 5521 5522 5523 5526 5528 5529 5529 5529 5531 5532 5533 5534 5536 5537 5538 5539 5540 5541 5541 5541 5541 5541 5540 5540 5539 5538 5538 5537
5522 5519 5508 5508 5516 5527 5536 5530 5530 5532 5532 5530 5526 5522 5519 5517 5514 5513 5513 5512 5511 5512 5512 5514 5515 5517 5518 5518 5519 5520 5521 5522 5523 5525 5527 5528 5529 5529 5530 5530 5529 5530 5530 5530 5529 5528 5528 5527 5527
5516 5512 5517 5508 5507 5506 5520 5530 5523 5526 5523 5520 5517 5513 5508 5506 5504 5503 5502 5502 5502 5502 5502 5503 5504 5504 5506 5507 5508 5509 5511 5512 5513 5514 5516 5516 5518 5518 5519 5518 5518 5518 5519 5519 5518 5517 5517 5517 5517
5509 5511 5502 5496 5496 5505 5523 5525 5515 5510 5510 5510 5507 5503 5499 5497 5494 5493 5493 5493 5492 5492 5491 5491 5491 5492 5494 5495 5496 5498 5500 5501 5502 5503 5504 5505 5506 5507 5508 5508 5508 5508 5507 5508 5507 5507 5506 5506 5506
5499 5499 5497 5495 5497 5497 5501 5506 5513 5507 5504 5501 5497 5494 5491 5487 5484 5483 5482 5482 5481 5481 5480 5479 5480 5481 5483 5484 5485 5486 5488 5489 5491 5491 5492 5494 5495 5496 5497 5497 5497 5497 5496 5497 5497 5497 5496 5495 5494
5495 5496 5491 5483 5484 5491 5487 5490 5503 5499 5497 5493 5488 5485 5482 5478 5475 5473 5472 5471 5470 5469 5469 5469 5470 5471 5472 5472 5473 5475 5476 5478 5479 5480 5482 5483 5484 5485 5486 5486 5486 5486 5485 5486 5486 5486 5485 5485 5484